Location: Foulognes
(49.1413°N, 0.8183°W)
Time: 05:37:04
(UTC+00:00)

STARLINK-65 - Pass Details

Date: 21 October 2019
Orbit: 548 x 551 km, 53.0° (Epoch: 17 November)

Event Time Altitude Azimuth Distance (km) Brightness Sun altitude
Rises 18:37:18 0° 282° (WNW) 2,719 8.9 -16.2°
Reaches altitude 10° 18:39:36 10° 288° (WNW) 1,826 7.5 -16.6°
Maximum altitude 18:43:38 49° 4° (N) 718 4.1 -17.2°
Enters shadow 18:45:07 32° 58° (ENE) 949 4.4 -17.5°
